Location: Plainartige
(45.6866°N, 1.7993°E)
Time: 02:12:55
(UTC+00:00)

BEESAT - Pass Details

Date: 25 June 2022
Orbit: 700 x 706 km, 98.6° (Epoch: 11 August)

Event Time Altitude Azimuth Distance (km) Brightness Sun altitude
Rises 20:49:47 0° 9° (N) 3,103 ? -9.1°
Reaches altitude 10° 20:52:06 10° 5° (N) 2,181 ? -9.4°
Maximum altitude 20:56:43 52° 290° (WNW) 877 ? -9.9°
Drops below altitude 10° 21:01:19 10° 214° (SW) 2,169 ? -10.4°
Sets 21:03:37 0° 210° (SSW) 3,084 ? -10.7°
